Location: Waco, TX
(31.5480°N, 97.1670°W)
Time: 23:19:56
(UTC-06:00)

ISS - Pass Details

Date: 11 November 2018
Orbit: 402 x 408 km, 51.6° (Epoch: 16 November)

Event Time Altitude Azimuth Distance (km) Brightness Sun altitude
Rises 00:56:21 0° 275° (W) 2,306 - -72.8°
Reaches altitude 10° 01:00:14 10° 322° (NW) 1,451 - -72.2°
Maximum altitude 01:00:40 10° 329° (NNW) 1,440 - -72.2°
Drops below altitude 10° 01:01:06 10° 337° (NNW) 1,452 - -72.1°
Sets 01:04:59 0° 24° (NNE) 2,316 - -71.6°
